Theta_e
335 336 335 335 336 337 337 337 337 337 335 334 333 333 333 334 335 334 334 332 330 333 333 332 332 333 331 331 329 330 327 328 322 320 324 322 323 326 330 332 329 328 324
334 335 335 335 336 336 336 336 336 335 334 333 333 332 332 333 334 333 332 331 330 330 329 330 325 329 331 331 329 325 329 332 325 319 319 317 319 322 324 324 325 326 325
333 333 334 334 335 335 335 335 335 334 333 333 333 332 332 333 333 333 332 331 329 326 325 321 324 326 327 329 327 328 330 329 328 324 317 318 317 318 318 320 320 320 320
332 332 333 333 334 335 335 334 334 334 333 333 333 332 332 332 332 333 332 331 329 327 325 326 325 324 326 327 329 331 327 324 326 319 316 315 315 317 317 316 314 317 317
329 330 332 333 334 334 334 332 333 334 334 333 333 333 334 333 331 332 331 331 331 326 325 325 325 324 322 323 329 328 326 324 321 317 315 314 313 313 313 314 314 314 314
329 329 331 332 333 334 334 333 333 333 334 333 332 333 333 329 303 308 323 331 330 327 324 325 324 320 318 314 316 317 323 324 319 316 316 313 313 313 315 313 311 309 307
329 330 330 332 331 332 333 332 332 334 335 332 330 332 332 330 302 303 309 331 330 330 325 324 322 324 324 323 312 311 312 311 318 323 317 317 314 315 316 313 313 313 312
329 329 330 331 330 331 332 332 332 333 333 333 332 332 331 323 301 302 307 332 329 328 326 324 321 320 326 324 325 325 325 326 326 327 326 322 323 324 320 318 315 313 313
328 329 330 330 330 331 331 331 331 331 330 330 330 329 330 327 301 301 316 328 326 326 326 324 322 320 305 305 324 323 322 319 308 307 308 305 303 305 315 316 313 312 310
329 330 331 331 331 331 332 331 331 332 330 327 328 328 313 329 301 301 316 326 323 321 320 320 306 314 299 304 322 322 317 317 318 319 316 309 315 311 309 319 318 314 313
331 331 332 332 332 333 332 332 331 329 326 326 327 328 326 324 314 302 307 326 323 322 320 319 316 299 299 302 310 324 318 321 313 319 318 318 319 318 319 319 321 323 320
331 331 331 333 332 332 332 331 331 329 324 320 325 324 323 321 305 301 303 309 313 322 319 318 310 297 298 299 310 299 302 310 320 317 315 315 316 316 317 318 321 323 326
331 331 332 332 332 332 331 328 324 326 322 320 323 324 323 321 317 298 298 301 306 321 321 307 296 296 297 299 299 300 306 319 318 316 315 317 318 320 319 321 324 325 325
331 331 332 332 331 332 330 327 326 322 322 322 321 322 323 322 319 320 321 316 303 308 303 308 305 304 305 306 309 314 319 319 319 318 319 319 322 322 320 321 320 319 318
331 331 332 331 331 327 326 324 326 326 322 323 322 321 323 319 320 312 315 319 316 309 311 316 316 315 315 317 318 320 321 322 321 322 320 321 322 322 323 324 323 322 320
330 330 330 330 330 325 320 319 297 302 303 304 306 316 324 305 298 299 298 297 298 300 316 316 315 316 316 317 318 318 321 318 322 324 324 324 323 322 323 324 323 321 320
329 331 330 327 329 323 321 322 321 308 295 295 298 301 303 303 295 294 295 295 296 306 318 317 319 319 319 319 320 320 321 324 326 326 325 325 325 324 321 322 321 321 321
331 311 330 331 331 328 326 327 327 325 321 321 299 304 294 294 293 293 294 301 315 315 320 319 319 322 322 321 321 322 323 323 325 326 326 326 325 324 322 322 322 322 322
329 329 331 331 331 327 329 328 328 328 328 325 315 303 294 291 291 292 296 324 320 320 322 321 321 322 322 322 322 325 326 325 325 326 326 326 326 325 323 323 322 303 309
329 313 320 331 330 330 329 327 327 328 327 327 324 321 307 306 313 311 312 323 324 323 325 325 325 324 323 323 324 324 323 323 322 324 326 326 327 326 325 325 325 323 323
327 327 310 330 329 330 329 327 327 327 327 326 328 321 299 324 323 320 319 322 324 326 325 325 326 327 326 326 325 324 322 322 321 324 327 327 327 326 327 326 326 326 326
327 327 327 328 329 329 329 329 327 326 327 327 328 317 292 324 326 324 323 323 326 329 329 328 326 326 328 327 327 325 323 323 325 327 327 327 327 327 327 326 326 326 326
327 326 327 327 328 315 326 328 327 327 325 327 328 322 314 323 327 327 327 327 328 329 330 330 329 327 328 328 329 329 327 327 329 329 328 328 327 327 327 326 326 325 325
327 326 326 326 326 326 327 328 327 313 325 325 326 326 324 326 328 329 329 330 329 330 330 330 330 330 330 330 329 329 329 329 330 329 330 328 328 323 327 326 325 325 325
326 325 325 325 324 325 325 326 326 326 325 326 327 326 327 326 326 327 329 330 331 330 330 330 331 331 331 331 331 331 319 295 319 312 329 329 328 327 326 326 327 327 328
319 319 318 319 320 321 321 321 322 323 323 323 324 324 324 325 325 325 325 326 326 328 328 329 329 330 330 330 330 313 297 293 307 294 323 328 328 327 327 327 327 326 326
Wind_Speed
13 11 11 10 10 10 8 8 8 8 8 8 8 8 8 7 6 5 5 5 4 5 5 5 5 5 4 4 3 5 6 4 5 2 2 5 3 3 6 9 9 11 14
13 13 11 10 9 9 8 8 8 8 8 8 8 7 7 6 6 5 5 4 4 4 4 5 3 3 5 5 4 5 5 5 7 8 3 3 5 3 8 11 8 10 13
13 13 11 10 9 8 8 8 8 9 8 8 7 7 6 6 6 4 3 5 4 3 4 4 4 4 4 5 5 6 7 6 9 9 5 3 4 5 10 10 11 12 9
13 13 11 10 8 7 8 8 8 8 8 8 7 6 6 5 4 4 4 5 5 5 3 2 3 3 3 6 7 9 9 9 9 8 7 6 4 5 9 12 11 11 12
13 12 10 9 8 8 8 8 7 8 7 7 7 6 5 5 3 5 4 5 6 6 4 3 4 4 5 7 6 10 11 9 10 8 7 8 7 7 10 8 12 12 9
12 11 10 9 8 8 7 8 8 8 7 7 6 6 6 4 4 1 2 4 6 7 5 5 4 6 7 7 8 7 12 15 13 8 7 10 10 9 9 11 13 12 7
11 10 10 9 9 8 8 9 8 7 7 8 6 5 6 5 4 2 3 5 4 4 4 4 4 3 8 7 10 11 10 8 10 13 13 11 12 12 13 11 11 9 6
11 10 10 9 9 8 8 8 7 5 6 7 7 5 5 5 1 5 5 5 4 4 4 4 4 5 8 9 11 11 11 11 12 10 12 13 14 15 13 11 11 10 9
10 10 10 10 10 9 9 8 6 7 7 6 5 5 4 6 5 5 5 6 5 4 4 4 4 5 9 11 13 13 12 8 8 13 12 13 12 10 14 11 10 12 7
11 10 10 10 10 9 9 8 6 6 6 6 5 4 3 6 4 3 4 5 5 4 4 4 5 5 10 12 11 13 11 10 13 13 11 13 14 12 7 6 11 11 7
10 10 10 10 9 9 9 7 7 6 6 5 6 5 5 4 4 4 7 5 4 4 4 4 3 7 9 12 11 12 12 13 11 12 10 9 10 8 6 5 3 10 9
10 11 10 10 8 8 9 7 7 7 7 6 7 6 4 5 5 6 4 6 7 5 5 4 3 8 10 10 10 15 16 12 10 9 9 9 8 7 6 5 6 6 4
11 11 11 10 8 9 9 8 6 7 6 6 6 6 5 3 4 6 7 7 7 6 5 7 9 10 12 11 16 17 13 9 9 9 9 8 8 9 8 8 6 5 5
12 11 10 10 9 8 6 6 6 6 6 6 6 5 5 3 3 4 5 5 9 8 9 6 7 8 9 10 9 8 8 8 9 8 9 8 9 10 8 7 6 6 5
12 11 10 8 8 8 6 4 5 5 4 6 6 5 6 4 4 4 4 5 5 7 9 5 5 5 7 5 5 6 7 8 8 8 9 10 10 10 8 7 7 7 7
12 10 9 9 8 7 7 4 9 5 6 7 7 5 5 10 11 9 7 11 13 11 5 5 6 6 6 6 6 6 8 8 9 10 11 11 10 9 9 8 6 7 8
12 11 8 8 8 8 7 7 7 5 10 9 5 5 4 11 11 9 10 11 7 7 6 5 7 8 7 6 7 8 9 8 10 9 10 10 9 9 8 8 8 8 8
13 12 10 9 9 8 8 7 7 8 7 6 7 3 7 10 13 13 12 9 5 3 6 7 6 8 7 7 8 7 8 7 8 9 8 8 8 9 9 9 8 8 8
12 10 9 8 9 8 7 7 7 7 7 7 6 4 7 9 8 8 11 7 7 6 7 7 6 6 7 7 6 7 9 9 8 9 9 8 7 8 8 9 9 7 6
12 13 10 9 8 9 7 7 7 7 7 8 8 7 6 5 6 6 5 6 7 7 7 7 8 8 7 8 7 7 7 7 7 7 8 8 8 9 9 10 10 9 9
9 9 8 8 8 9 8 8 7 7 6 7 7 9 10 8 8 8 9 8 8 7 7 7 7 8 9 9 9 9 9 8 8 10 10 10 10 10 10 10 10 10 11
10 9 10 8 8 8 9 8 7 7 7 7 7 7 8 7 6 8 8 8 8 7 6 7 7 7 8 9 9 9 10 10 11 11 11 10 10 11 11 11 12 12 12
9 10 9 7 7 7 6 7 7 7 7 6 7 8 8 7 6 7 8 8 8 8 7 7 8 7 8 9 10 10 11 11 11 11 12 12 12 12 12 12 13 12 12
6 8 8 6 6 6 6 6 6 4 5 7 7 7 7 7 7 7 6 6 7 7 8 8 8 11 10 10 10 11 11 11 10 11 15 12 12 12 13 13 14 16 15
10 8 7 5 6 5 5 3 3 2 3 2 1 1 2 3 3 4 4 4 5 5 7 7 7 10 13 16 14 15 13 8 14 11 12 15 16 18 16 14 15 15 17
11 12 10 9 9 8 9 8 7 7 8 7 6 6 5 4 4 4 4 4 4 4 5 5 6 9 11 11 14 14 7 6 10 11 13 14 15 14 15 18 22 16 18
Wind_Direction
133 131 133 131 129 130 131 140 141 145 147 150 158 166 157 160 172 167 161 168 189 210 210 215 216 213 212 195 184 200 201 196 142 96 100 38 32 87 113 116 127 128 127
130 130 130 133 134 133 136 141 147 143 146 151 160 160 156 158 169 179 170 168 189 200 168 187 183 193 201 171 181 188 189 178 148 129 81 64 49 68 103 107 118 124 130
136 135 138 139 141 141 140 143 147 143 151 157 158 156 165 169 170 172 171 161 158 144 148 147 162 155 178 179 166 176 148 138 146 129 115 95 55 86 89 91 99 98 109
141 144 145 146 146 145 142 147 152 157 159 154 149 162 157 159 161 146 166 157 172 152 181 141 156 176 165 180 172 149 146 141 124 119 113 102 86 83 103 111 104 107 110
146 148 145 143 140 140 143 152 154 161 158 144 151 149 134 142 107 127 141 169 164 145 154 177 181 187 187 175 165 157 146 141 133 121 119 116 120 122 115 115 114 110 90
150 146 143 142 145 149 155 160 159 163 157 154 160 164 154 112 42 65 162 150 147 160 168 181 151 141 152 151 136 147 154 150 140 134 136 141 134 126 126 127 120 123 116
158 151 149 150 150 154 158 160 157 172 144 148 146 184 126 107 26 140 160 151 155 169 160 162 154 125 155 146 116 102 95 85 142 150 145 143 138 142 137 129 129 133 126
161 157 154 158 152 159 157 150 151 159 154 145 144 143 132 90 64 130 166 134 138 151 156 136 142 162 156 152 149 144 140 142 143 145 144 145 151 148 142 131 118 105 101
167 164 163 158 159 160 154 140 143 147 141 131 144 137 135 106 103 143 169 120 116 97 103 126 139 147 152 148 146 136 117 101 65 96 109 114 110 112 128 124 126 135 127
180 172 165 164 164 161 138 135 150 148 139 140 132 116 62 114 114 180 149 127 119 109 97 93 64 136 153 150 141 142 124 133 126 120 110 103 118 109 109 128 147 139 131
179 167 163 168 163 147 134 145 151 142 129 131 127 119 94 81 84 130 137 134 132 128 121 103 89 119 140 135 140 147 136 136 127 130 126 126 131 129 120 109 115 150 162
171 168 162 161 157 145 141 144 146 143 139 130 138 125 95 98 72 82 102 125 136 137 124 110 103 114 122 119 126 124 123 125 129 130 133 138 138 141 137 128 145 127 61
172 163 159 156 146 143 141 145 144 151 143 149 155 149 122 103 97 77 93 118 112 122 123 104 104 99 103 101 125 129 129 133 133 138 142 147 149 147 133 138 157 164 79
170 160 157 153 144 142 140 160 151 151 155 160 160 159 136 118 124 135 133 114 101 94 104 109 101 89 91 116 126 125 131 137 144 144 147 130 137 150 157 169 171 178 199
165 161 160 143 149 139 141 158 159 170 158 168 162 165 167 163 163 144 138 137 126 123 121 119 107 106 126 126 113 117 129 147 148 148 141 153 156 162 171 174 185 183 200
163 166 163 155 146 147 148 135 37 32 116 106 153 208 122 101 135 138 127 117 129 141 122 124 124 129 139 129 132 133 142 153 152 160 160 165 166 174 175 183 185 194 201
169 167 160 161 155 156 161 163 152 68 65 62 76 140 118 138 134 127 125 115 118 125 130 135 144 148 146 144 146 149 154 166 162 163 166 172 178 184 174 183 193 199 207
171 161 168 171 166 162 172 172 160 152 153 150 59 86 115 132 133 137 137 123 127 141 146 150 153 160 161 168 162 164 164 162 179 179 180 181 183 185 191 197 200 210 217
169 171 177 173 171 167 173 168 163 152 143 148 134 88 80 90 109 141 173 161 169 166 165 162 164 168 169 174 179 190 172 178 187 189 193 192 191 204 204 213 221 225 236
175 167 171 170 158 168 170 175 168 162 158 157 168 159 146 147 165 168 199 188 175 186 181 178 173 173 178 186 193 197 192 184 188 206 202 201 204 210 219 218 225 231 215
175 164 173 166 172 176 178 182 176 172 167 165 164 156 171 185 180 181 191 197 207 193 189 188 182 186 190 193 198 198 200 198 198 211 212 211 212 215 219 226 231 232 241
172 167 177 177 171 179 185 182 183 182 173 164 154 138 164 216 180 184 191 201 216 214 201 198 197 192 189 196 198 200 201 206 208 218 218 220 220 224 229 230 236 239 243
173 166 174 172 178 163 176 189 185 182 183 179 162 148 178 211 198 195 195 199 202 210 206 208 213 207 205 205 205 205 208 212 214 212 217 219 223 227 231 235 240 244 245
154 169 171 170 172 174 187 191 197 198 189 181 178 174 185 202 217 224 220 210 208 211 213 215 221 223 217 216 216 220 225 229 227 222 226 230 232 228 239 241 241 244 248
100 93 94 104 120 123 120 130 140 151 170 166 147 209 195 215 233 248 254 243 241 242 240 242 242 243 240 240 239 237 237 218 233 234 229 233 240 241 243 241 244 250 250
89 97 83 72 72 78 82 83 77 69 64 59 57 49 32 23 20 15 351 318 289 277 274 269 266 268 275 270 261 261 260 229 228 231 252 255 251 247 247 249 251 254 254